TimeEDT,TemperatureF,Dew PointF,Humidity,Sea Level PressureIn,VisibilityMPH,Wind Direction,Wind SpeedMPH,Gust SpeedMPH,PrecipitationIn,Events,Conditions,WindDirDegrees,DateUTC
12:54 AM,64.0,63.0,96,29.95,9.0,Calm,Calm,-,N/A,,Clear,0,2013-07-12 04:54:00
1:54 AM,63.0,62.1,97,29.96,8.0,SSW,3.5,-,N/A,,Clear,210,2013-07-12 05:54:00
2:54 AM,64.0,62.1,93,29.97,10.0,Calm,Calm,-,N/A,,Clear,0,2013-07-12 06:54:00
3:54 AM,66.0,59.0,78,29.98,10.0,NE,5.8,-,N/A,,Clear,40,2013-07-12 07:54:00
4:54 AM,66.0,59.0,78,30.00,10.0,NE,6.9,-,N/A,,Partly Cloudy,50,2013-07-12 08:54:00
5:54 AM,66.9,59.0,76,30.02,10.0,NE,8.1,-,N/A,,Partly Cloudy,40,2013-07-12 09:54:00
6:54 AM,68.0,59.0,73,30.04,10.0,NE,8.1,-,N/A,,Mostly Cloudy,40,2013-07-12 10:54:00
7:54 AM,71.1,60.1,68,30.05,10.0,NE,10.4,18.4,N/A,,Clear,50,2013-07-12 11:54:00
8:54 AM,73.0,60.1,64,30.05,10.0,NNE,15.0,-,N/A,,Unknown,30,2013-07-12 12:54:00
9:54 AM,75.0,61.0,62,30.06,10.0,NE,10.4,-,N/A,,Clear,50,2013-07-12 13:54:00
10:54 AM,77.0,62.1,60,30.07,10.0,NNE,11.5,-,N/A,,Partly Cloudy,30,2013-07-12 14:54:00
11:54 AM,77.0,63.0,62,30.06,10.0,NE,11.5,-,N/A,,Mostly Cloudy,40,2013-07-12 15:54:00
12:54 PM,81.0,64.9,58,30.06,10.0,NE,10.4,-,N/A,,Partly Cloudy,40,2013-07-12 16:54:00
1:54 PM,79.0,64.0,60,30.06,10.0,NE,8.1,-,N/A,,Overcast,40,2013-07-12 17:54:00
2:54 PM,80.1,64.9,60,30.06,10.0,NE,10.4,-,N/A,,Overcast,50,2013-07-12 18:54:00
3:54 PM,80.1,64.9,60,30.05,10.0,ENE,10.4,-,N/A,,Mostly Cloudy,70,2013-07-12 19:54:00
4:54 PM,78.1,66.0,66,30.06,10.0,NE,6.9,-,N/A,,Overcast,50,2013-07-12 20:54:00
5:54 PM,78.1,64.9,64,30.06,10.0,NE,6.9,-,N/A,,Overcast,50,2013-07-12 21:54:00
6:54 PM,78.1,64.9,64,30.07,10.0,ENE,5.8,-,N/A,,Scattered Clouds,70,2013-07-12 22:54:00
7:54 PM,75.9,64.0,67,30.08,10.0,ENE,6.9,-,0.00,,Mostly Cloudy,70,2013-07-12 23:54:00
8:54 PM,75.9,64.0,67,30.09,10.0,ENE,10.4,-,N/A,,Overcast,60,2013-07-13 00:54:00
9:54 PM,73.9,63.0,68,30.11,10.0,ENE,12.7,-,0.00,Rain,Light Rain,70,2013-07-13 01:54:00
10:54 PM,70.0,62.1,76,30.13,9.0,East,6.9,18.4,0.01,Rain,Light Rain,80,2013-07-13 02:54:00
11:01 PM,69.8,62.6,78,30.14,9.0,ENE,10.4,-,0.00,Rain,Light Rain,60,2013-07-13 03:01:00
11:41 PM,66.2,60.8,83,30.14,6.0,NE,10.4,-,0.03,Rain,Light Rain,40,2013-07-13 03:41:00
11:54 PM,66.0,62.1,87,30.14,4.0,NE,8.1,-,0.06,Rain,Rain,50,2013-07-13 03:54:00